Location: ????????
(55.7667°N, 37.4833°E)
Time: 02:25:06
(UTC+00:00)

Cosmos 1356 Rocket - Pass Details

Date: 19 May 2025
Orbit: 517 x 566 km, 81.2° (Epoch: 15 June)

Event Time Altitude Azimuth Distance (km) Brightness Sun altitude
Exits shadow 18:52:57 - 175° (S) 2,188 5.9 -7.6°
Reaches altitude 10° 18:53:46 10° 172° (S) 1,861 5.5 -7.7°
Maximum altitude 18:57:44 49° 98° (E) 731 3.7 -8.0°
Drops below altitude 10° 19:01:42 10° 23° (NNE) 1,859 6.5 -8.3°
Sets 19:03:55 0° 18° (NNE) 2,752 7.5 -8.5°
